CZ-6A DEB

Satellite information

Favourite Embed

Satellite Type and Status

DEBRISIN ORBIT

Key statistics

Satellite CZ-6A DEB at a glance.

Uptime

1129

Days in orbit

Revolutions

≈ 14.1

Per day

Orbit

SSO

Sun Synchronous Orbit

Inclination

98.8

Latest

Satellite identification and parameters

Extended collection of information and parameters for CZ-6A DEB.

Object identification

Identified? True

Debris? True

Object name: CZ-6A DEB

International designator: 2022-151CH

Object number (NORAD): 54338

Object ID (CCSDS): 54338

Country: PEOPLES REPUBLIC OF CHINA (PRC)

Current information (Y/N): Y

RCS size: SMALL

Orbital parameters

Period: 101.835 minutes

Inclination: 98.8368 deg

SMA: 7223.688 km

Apoapsis: 874.661 km

Periapsis: 816.444 km

RAAN: 349.6131 deg

Eccentricy: 0.0040296

Argument of periapsis: 137.6567 deg

Mean anomaly: 222.7728 deg

Mean motion: 14.14048482 rev/day

Mean motion (dot): 0.00001819 rev/day2

B* drag term: 0.00097169 1/REarth

Two-line elements (TLE)

Creation date: Dec. 12, 2025, 7:16 a.m.

Reference frame: TEME

Reference center: EARTH

Epoch: Dec. 11, 2025, 10:49 p.m. UTC

TLE line 0: 0 CZ-6A DEB

TLE line 1: 1 54338U 22151CH 25345.95082704 .00001819 00000-0 97169-3 0 9992

TLE line 2: 2 54338 98.8368 349.6131 0040296 137.6567 222.7728 14.14048482158325

Live tracking on map

Real-time ground track for satellite CZ-6A DEB.

In-orbit conjunctions

A list of the most updated potential collisions computed for object CZ-6A DEB.

Target Orbit TCA Probability of collision Miss distance Type
FENGYUN 1C DEB SSO 2025-10-23 08:20:37 0.0001260366 68.0 (m) DEBRIS
NOAA 9 SSO 2025-05-06 01:32:29 0.001074915 814.0 (m) PAYLOAD
COSMOS 1275 DEB LEO 2024-11-08 13:48:36 0.0001174849 269.0 (m) DEBRIS

Associated space launch

Chinese satellite reported for atmospheric/ocean/environmental/spatial parameter research purposes, details TBD.

CZ-6A DEB was lifted into orbit during the mission ‘Long March 6A | Yunhai 3’, on board a Long March 6A space rocket.

The launch took place on Nov. 11, 2022, 10:52 p.m. from Launch Complex 9A.

For more information about the launch, click the button.

Launch to space Long March 6A | Yunhai 3
Long March 6A | Yunhai 3

Agency: N/A

Status: Launch Successful

Launch date: Nov. 11, 2022, 10:52 p.m. UTC

Rocket: Long March 6A

Launch pad: Launch Complex 9A

Location: Taiyuan Satellite Launch Center, People's Republic of China

...

Latest news about this satellite

There are no fresh news available about this satellite. Check back as we update our databases every day.


Newsletter sign-up

Weekly statistics, charts and insights to help you stay on top of the space industry.